SCP
0 0 0 0 0 0 0 0 0 0 0 0 0 0 0 0 0 0 0 0 0 0 0 0 0 0 0 0 0 0 0 0 0 0 0 0 0 0 0 0 0 0 0
0 0 0 0 0 0 0 0 0 0 0 0 0 0 0 0 0 0 0 0 0 0 0 0 0 0 0 0 0 0 0 0 0 0 0 0 0 0 0 0 0 0 0
0 0 0 0 0 0 0 0 0 0 0 0 0 0 0 0 0 0 0 0 0 0 0 0 0 0 0 0 0 0 0 0 0 0 0 0 0 0 0 0 0 0 0
0 0 0 0 0 0 0 0 0 0 0 0 0 0 0 0 0 0 0 0 0 0 0 0 0 0 0 0 0 0 0 0 0 0 0 0 0 0 0 0 0 0 0
0 0 0 0 0 0 0 0 0 0 0 0 0 0 0 0 0 0 0 0 0 0 0 0 0 0 0 0 0 0 0 0 0 0 0 0 0 0 0 0 0 0 0
0 0 0 0 0 0 0 0 0 0 0 0 0 0 0 0 0 0 0 0 0 0 0 0 0 0 0 0 0 0 0 0 0 0 0 0 0 0 0 0 0 0 0
0 0 0 0 0 0 0 0 0 0 0 0 0 0 0 0 0 0 0 0 0 0 0 0 0 0 0 0 0 0 0 0 0 0 0 0 0 0 0 0 0 0 0
0 0 0 0 0 0 0 0 0 0 0 0 0 0 0 0 0 0 0 0 0 0 0 0 0 0 0 0 0 0 0 0 0 0 0 0 0 0 0 0 0 0 0
0 0 0 0 0 0 0 0 0 0 0 0 0 0 0 0 0 0 0 0 0 0 0 0 0 0 0 0 0 0 0 0 0 0 0 0 0 0 0 0 0 0 0
0 0 0 0 0 0 0 0 0 0 0 0 0 0 0 0 0 0 0 0 0 0 0 0 0 0 0 0 0 0 0 0 0 0 0 0 0 0 0 0 0 0 0
0 0 0 0 0 0 0 0 -0 0 0 0 0 0 0 0 0 0 0 0 0 0 0 0 0 0 0 0 0 0 0 0 0 0 0 0 0 0 0 0 0 0 0
0 0 0 0 0 0 0 -0 -0 -0 0 0 0 0 0 0 0 0 0 0 0 0 0 0 0 0 0 0 0 0 0 0 0 0 0 0 0 0 0 0 0 0 0
0 0 0 0 0 0 0 0 0 0 0 0 0 0 0 0 0 0 0 0 0 0 0 0 0 0 0 0 0 0 0 0 0 0 0 0 0 0 0 0 0 0 0
0 0 0 0 0 0 0 0 0 0 0 0 0 0 0 0 0 0 0 0 0 0 0 0 0 0 0 0 0 0 0 0 0 0 0 0 0 0 0 0 0 0 0
0 0 0 0 0 0 0 0 0 0 0 0 0 0 0 0 0 0 0 0 0 0 0 0 0 0 0 0 0 0 0 0 0 0 0 0 0 0 0 0 0 0 0
0 0 0 0 0 0 0 0 0 0 0 0 0 0 0 0 0 0 0 0 0 0 0 0 0 0 0 0 0 0 0 0 0 0 0 0 0 0 0 0 0 0 0
0 0 0 0 0 0 0 0 0 0 0 0 0 0 0 0 0 0 0 0 0 0 0 0 0 0 0 0 0 0 0 0 0 0 0 0 0 0 0 0 0 0 0
0 0 0 0 0 0 0 0 0 0 0 0 0 0 0 0 0 0 0 0 0 0 0 0 0 0 0 0 0 0 0 0 0 0 0 0 0 0 0 0 0 0 0
0 0 0 0 0 0 0 0 0 0 0 0 0 0 0 0 0 0 0 0 0 0 0 0 0 0 0 0 0 0 0 0 0 0 0 0 0 0 0 0 0 0 0
0 0 0 0 0 0 0 0 0 0 0 0 0 0 0 0 0 0 0 0 0 0 0 0 0 0 0 0 0 0 0 0 0 0 0 0 0 0 0 0 0 0 0
0 0 0 0 0 0 0 0 0 0 0 0 0 0 0 0 0 0 0 0 0 0 0 0 0 0 0 0 0 0 0 0 0 0 0 0 0 0 0 0 0 0 0
0 0 0 0 0 0 0 0 0 0 0 0 0 0 0 0 0 0 0 0 0 0 0 0 0 0 0 0 0 0 0 0 0 0 0 0 0 0 0 0 0 0 0
0 0 0 0 0 0 0 0 0 0 0 0 0 0 0 0 0 0 0 0 0 0 0 0 0 0 0 0 0 0 0 0 0 0 0 0 0 0 0 0 0 0 0
0 0 0 0 0 0 0 0 0 0 0 0 0 0 0 0 0 0 0 0 0 0 0 0 0 0 0 0 0 0 0 0 0 0 0 0 0 0 0 0 0 0 0
0 0 0 0 0 0 0 0 0 0 0 0 0 0 0 0 0 0 0 0 0 0 0 0 0 0 0 0 0 0 0 0 0 0 0 0 0 0 0 0 0 0 0
0 0 0 0 0 0 0 0 0 0 0 0 0 0 0 0 0 0 0 0 0 0 0 0 0 0 0 0 0 0 0 0 0 0 0 0 0 0 0 0 0 0 0
Wind_Speed
1 2 3 3 4 3 3 4 4 3 3 2 2 2 1 1 2 2 2 3 3 3 3 2 3 3 2 2 2 2 2 2 2 2 3 3 3 4 3 3 3 3 3
2 2 2 3 3 3 3 3 3 3 2 2 2 2 1 0 1 2 2 3 3 3 2 2 2 2 2 3 3 2 1 2 3 2 2 3 5 4 4 3 3 3 3
4 3 2 2 2 3 4 4 3 3 3 3 3 3 3 2 3 3 3 3 3 3 3 2 2 2 2 2 2 1 1 1 2 2 2 2 0 3 3 3 3 4 3
3 3 3 3 3 3 3 3 3 3 3 3 3 3 2 1 1 1 2 3 3 3 3 3 2 2 1 1 2 1 1 1 1 1 1 1 2 1 2 3 3 3 3
4 4 4 4 3 2 3 3 3 3 2 3 3 3 2 1 0 1 2 3 3 3 3 3 2 2 2 2 2 2 1 1 1 0 0 1 1 1 1 2 3 3 3
3 3 3 3 3 3 3 3 3 2 2 3 3 3 3 1 1 2 2 2 2 3 4 3 2 2 2 2 2 1 1 1 1 0 1 1 1 1 1 1 1 2 3
4 4 4 4 3 4 4 3 3 2 2 2 2 2 2 2 1 0 1 1 2 2 3 3 2 2 2 2 1 1 1 1 1 0 0 1 1 1 2 1 1 1 2
3 3 4 4 3 4 4 4 3 2 2 2 2 2 2 1 1 1 1 1 1 2 2 2 2 2 2 2 2 1 1 1 1 1 0 0 1 1 2 2 1 1 2
4 3 3 3 3 4 4 4 4 2 2 2 2 1 1 1 1 1 0 1 1 1 2 2 2 2 2 2 1 1 2 1 1 1 1 1 1 1 1 2 2 2 0
4 3 3 3 2 3 2 3 3 3 2 2 1 1 1 1 1 0 1 1 2 2 2 2 2 2 2 2 1 1 2 2 2 1 1 1 1 1 1 1 1 2 2
4 3 2 2 2 3 2 2 2 2 1 1 1 1 0 0 0 0 1 1 2 2 1 1 2 2 2 2 2 1 1 2 2 2 1 2 2 1 1 0 1 1 2
4 3 3 3 3 3 2 2 2 2 1 1 1 1 1 1 1 1 2 1 2 2 1 1 1 2 2 2 1 2 2 1 2 2 2 3 2 2 1 1 1 1 2
4 3 3 3 2 2 1 1 1 1 1 2 2 2 1 1 1 2 2 2 2 2 2 2 1 2 2 2 2 1 1 1 2 2 2 3 2 2 2 2 2 2 1
4 4 3 2 2 1 1 1 1 1 2 2 2 1 1 0 1 1 2 2 2 2 2 2 2 2 2 2 2 1 2 2 2 2 2 2 2 2 2 2 2 2 1
4 4 3 2 2 2 1 2 1 2 2 3 2 1 1 1 1 1 2 2 2 2 2 2 3 3 2 2 2 2 2 2 3 3 3 3 3 4 3 2 2 1 1
5 4 4 3 3 2 2 2 2 2 2 3 1 1 1 2 1 1 1 2 2 2 2 2 2 3 3 5 4 2 2 2 2 3 4 4 4 5 5 5 4 3 3
5 5 4 4 3 3 3 3 2 2 3 2 1 1 1 1 1 1 1 1 2 2 2 2 2 3 4 6 6 5 2 2 2 3 3 4 4 4 3 4 5 4 5
5 5 4 3 2 2 2 3 3 3 3 2 1 1 1 1 1 1 1 1 1 1 1 2 3 3 5 7 7 6 2 2 3 3 3 4 5 4 4 3 4 4 4
5 5 4 4 3 3 3 4 4 3 3 1 1 1 0 0 1 1 1 1 1 1 2 2 2 3 5 7 7 6 2 2 4 4 4 4 5 8 7 3 4 5 5
4 5 4 5 4 3 4 5 3 3 1 0 1 1 0 0 1 1 1 1 1 2 2 2 3 3 4 7 8 6 1 2 4 4 4 6 6 8 7 4 4 6 7
5 5 6 5 3 3 4 5 3 1 1 0 1 1 1 0 0 1 1 1 1 2 2 3 3 3 4 7 8 7 2 2 3 4 4 4 9 9 9 6 5 8 7
5 5 5 4 2 3 5 4 1 1 0 1 1 1 1 1 1 1 1 1 1 2 3 3 4 3 4 5 7 8 6 5 3 4 4 5 10 10 10 7 7 10 7
5 4 5 4 2 2 3 3 1 0 1 1 1 1 1 1 1 0 1 1 1 1 2 2 3 4 4 5 9 9 9 8 4 4 8 10 11 9 7 8 9 7 3
4 4 5 4 2 1 1 2 1 1 2 1 1 1 2 2 2 1 1 1 1 2 2 3 4 4 4 4 4 4 5 6 5 5 7 10 9 6 6 7 5 3 4
3 4 4 4 2 1 1 0 1 2 2 1 1 1 1 2 2 2 2 2 3 3 3 3 4 4 5 7 9 6 4 4 4 5 3 3 3 3 3 4 4 4 3
4 4 3 3 2 2 1 0 0 2 2 1 1 1 1 2 2 2 4 4 5 7 8 7 6 6 8 11 12 11 11 10 9 4 3 4 4 4 5 5 5 4 4
Wind_Direction
194 148 143 130 126 124 127 132 125 121 112 95 90 81 53 10 11 5 8 14 15 18 29 20 14 20 28 11 15 32 31 17 4 37 13 1 15 31 22 12 14 9 5
132 125 120 123 137 146 147 141 143 145 139 122 122 122 122 61 354 339 359 11 11 8 16 23 11 12 21 18 21 37 39 15 24 64 57 10 356 357 7 9 17 5 4
178 166 150 147 144 163 167 159 157 145 132 114 97 75 52 31 16 1 351 348 355 2 12 17 17 15 28 13 2 26 73 39 15 48 106 104 311 322 337 356 8 4 8
171 167 165 161 173 188 160 144 139 130 126 122 116 113 108 100 290 302 318 337 358 4 10 13 16 16 18 7 348 34 71 101 35 18 51 128 163 128 335 333 344 357 5
174 177 176 173 167 152 136 132 122 119 123 125 127 117 107 128 336 348 357 357 356 4 7 11 14 11 8 1 2 14 43 105 141 137 105 84 69 113 145 310 327 343 346
169 166 156 142 134 121 118 122 122 124 129 127 125 128 131 120 61 15 2 350 344 348 357 359 4 2 3 357 355 2 31 55 99 123 152 155 160 184 161 224 303 323 317
155 153 151 148 145 139 137 133 132 136 139 136 140 147 149 144 154 232 310 330 336 335 335 347 347 348 345 352 8 25 17 15 47 43 217 196 202 181 164 166 254 314 314
157 155 159 160 157 150 144 143 151 162 154 152 157 150 149 153 201 225 225 261 272 284 313 334 341 344 352 6 22 26 4 17 9 349 307 256 251 191 180 177 166 346 331
151 148 148 152 154 153 159 165 163 165 166 170 151 155 170 177 222 259 267 280 285 298 324 341 349 345 353 2 26 25 354 1 351 333 331 312 286 231 210 192 177 166 274
136 137 141 143 146 146 143 139 153 166 168 164 174 170 202 216 222 227 290 301 307 323 344 352 351 350 355 2 28 13 358 18 351 338 348 331 306 291 232 197 197 187 182
149 146 140 126 115 107 116 125 135 126 122 146 153 130 193 261 183 296 291 295 313 322 331 336 350 355 357 1 22 4 10 13 349 349 345 320 311 310 296 223 192 201 182
141 136 125 108 99 104 111 123 129 128 145 138 112 101 72 55 37 347 322 320 324 327 332 352 360 352 353 357 7 346 356 359 339 330 335 320 324 314 295 256 234 225 206
124 114 108 111 117 122 122 120 123 142 125 108 96 72 57 48 3 339 339 349 351 347 356 17 2 343 341 342 333 330 332 323 307 306 305 302 321 312 299 275 258 248 226
137 131 126 125 125 125 127 123 108 126 113 101 94 75 28 341 320 339 355 359 8 7 357 355 339 329 327 327 324 334 333 322 320 316 304 294 281 273 284 284 266 247 233
142 147 148 146 135 122 115 112 101 100 105 100 88 55 9 20 28 19 3 3 9 4 355 1 348 336 326 323 323 314 322 319 322 325 320 304 300 293 282 279 269 240 234
160 158 152 145 147 151 146 130 118 120 112 105 94 36 42 35 28 13 17 19 6 356 4 354 343 338 331 336 333 320 308 304 305 307 311 310 314 317 318 305 280 241 230
164 160 161 162 164 167 157 151 149 121 107 101 71 45 45 27 353 10 39 15 349 356 351 336 335 321 314 331 336 329 311 293 287 289 300 310 315 315 307 315 318 298 269
157 156 153 146 139 129 122 115 105 104 99 79 42 22 32 348 347 23 2 330 331 329 316 317 317 316 320 333 336 335 320 293 286 280 275 280 293 297 297 299 307 299 289
155 153 151 140 123 113 115 104 91 87 82 62 359 321 289 312 342 329 304 298 311 312 300 303 312 313 314 329 334 342 321 299 293 285 281 279 281 295 301 291 290 297 295
134 132 125 112 109 113 114 103 96 85 77 282 282 300 312 151 286 284 288 289 286 289 302 310 306 300 302 322 332 337 321 306 300 298 293 290 289 296 299 275 265 279 284
125 126 121 118 127 131 118 107 100 121 255 291 18 8 345 324 302 322 314 308 313 326 323 314 308 301 301 317 326 330 318 289 293 296 296 293 301 297 293 285 260 263 275
119 122 117 111 111 129 123 117 145 239 339 65 44 8 344 333 9 18 348 343 344 341 325 321 318 310 306 310 317 322 317 310 285 285 286 289 300 300 297 288 276 278 283
128 124 122 112 96 117 129 135 198 174 99 69 29 348 346 345 348 357 328 335 338 326 311 310 306 306 307 309 317 319 316 312 298 281 288 293 298 302 300 289 287 288 274
131 127 120 119 118 118 119 150 168 131 105 87 355 339 345 336 334 325 294 294 296 299 302 298 294 297 302 301 305 307 308 306 305 300 300 302 299 292 285 294 292 275 256
131 133 136 142 156 149 128 139 146 122 102 70 359 339 329 316 317 312 286 272 259 253 271 270 269 282 293 290 297 303 297 292 286 303 305 305 304 300 294 290 284 276 274
127 123 125 133 149 149 150 230 161 139 129 89 331 317 311 307 307 312 316 301 285 299 295 287 282 275 277 296 304 303 301 302 303 305 287 285 284 281 281 284 286 278 269